TimeEDT,TemperatureF,Dew PointF,Humidity,Sea Level PressureIn,VisibilityMPH,Wind Direction,Wind SpeedMPH,Gust SpeedMPH,PrecipitationIn,Events,Conditions,WindDirDegrees,DateUTC
12:53 AM,57.9,55.9,93,30.03,10.0,NNW,3.5,-,N/A,,Clear,330,2013-07-12 04:53:00
1:53 AM,57.0,55.0,93,30.03,10.0,NW,3.5,-,N/A,,Clear,310,2013-07-12 05:53:00
2:53 AM,57.0,55.0,93,30.03,9.0,Calm,Calm,-,0.01,,Clear,0,2013-07-12 06:53:00
3:53 AM,55.9,54.0,93,30.04,8.0,Calm,Calm,-,N/A,,Clear,0,2013-07-12 07:53:00
4:53 AM,55.9,54.0,93,30.04,8.0,Calm,Calm,-,N/A,,Clear,0,2013-07-12 08:53:00
5:53 AM,57.0,55.0,93,30.05,10.0,Calm,Calm,-,N/A,,Partly Cloudy,0,2013-07-12 09:53:00
6:53 AM,57.0,55.9,96,30.06,7.0,Calm,Calm,-,N/A,,Clear,0,2013-07-12 10:53:00
7:53 AM,61.0,57.9,90,30.08,10.0,NW,4.6,-,N/A,,Clear,320,2013-07-12 11:53:00
8:53 AM,66.0,61.0,84,30.09,10.0,North,4.6,-,N/A,,Clear,10,2013-07-12 12:53:00
9:36 AM,69.8,62.6,78,30.10,10.0,Variable,4.6,-,N/A,,Partly Cloudy,0,2013-07-12 13:36:00
9:53 AM,69.1,62.1,78,30.09,10.0,NNE,9.2,-,N/A,,Clear,20,2013-07-12 13:53:00
10:53 AM,73.0,62.1,68,30.08,10.0,NNE,5.8,-,N/A,,Partly Cloudy,20,2013-07-12 14:53:00
11:53 AM,75.0,62.1,64,30.08,10.0,North,9.2,-,N/A,,Scattered Clouds,10,2013-07-12 15:53:00
12:53 PM,75.0,57.9,55,30.08,10.0,NE,9.2,-,N/A,,Partly Cloudy,50,2013-07-12 16:53:00
1:53 PM,78.1,60.1,54,30.06,10.0,East,9.2,-,N/A,,Scattered Clouds,80,2013-07-12 17:53:00
2:53 PM,78.1,62.1,58,30.05,10.0,ENE,11.5,-,N/A,,Clear,70,2013-07-12 18:53:00
3:53 PM,75.0,62.1,64,30.05,10.0,NE,9.2,-,N/A,,Mostly Cloudy,50,2013-07-12 19:53:00
4:05 PM,73.4,60.8,65,30.06,10.0,NNE,6.9,-,N/A,Thunderstorm,Thunderstorm,30,2013-07-12 20:05:00
4:20 PM,75.2,62.6,65,30.06,10.0,NNE,5.8,-,N/A,,Overcast,30,2013-07-12 20:20:00
4:53 PM,75.9,62.1,62,30.04,10.0,NNE,11.5,-,N/A,,Mostly Cloudy,30,2013-07-12 20:53:00
5:45 PM,77.0,62.6,61,30.06,10.0,NE,11.5,18.4,N/A,Thunderstorm,Clear,50,2013-07-12 21:45:00
5:53 PM,78.1,62.1,58,30.04,10.0,NE,12.7,19.6,N/A,Thunderstorm,Partly Cloudy,40,2013-07-12 21:53:00
6:00 PM,77.0,60.8,57,30.05,10.0,NE,13.8,21.9,N/A,,Scattered Clouds,50,2013-07-12 22:00:00
6:40 PM,75.2,59.0,57,30.06,10.0,ENE,8.1,-,N/A,Thunderstorm,Partly Cloudy,70,2013-07-12 22:40:00
6:53 PM,77.0,60.1,56,30.05,10.0,ENE,6.9,-,N/A,,Clear,70,2013-07-12 22:53:00
7:53 PM,73.0,60.1,64,30.06,10.0,NE,5.8,-,N/A,,Clear,50,2013-07-12 23:53:00
8:53 PM,70.0,60.1,71,30.06,10.0,NE,6.9,-,N/A,,Clear,50,2013-07-13 00:53:00
9:53 PM,70.0,60.1,71,30.09,10.0,East,9.2,-,N/A,,Overcast,100,2013-07-13 01:53:00
10:53 PM,66.0,62.1,87,30.10,10.0,Calm,Calm,-,N/A,,Mostly Cloudy,0,2013-07-13 02:53:00
11:53 PM,66.0,60.1,81,30.09,10.0,Calm,Calm,-,N/A,,Mostly Cloudy,0,2013-07-13 03:53:00